Regional Weather Roundup
Issued by NWS Bismarck, ND

Home | Current Version | Previous Version | Text Only | Print | Product List | Glossary On
Versions: 1 2 3 4 5 6 7 8 9 10 11 12 13 14 15 16 17 18 19 20 21 22 23 24 25 26 27 28 29 30 31 32 33 34 35 36 37 38 39 40 41 42 43 44 45 46 47 48 49 50
000
ASUS43 KBIS 262102
RWRBIS

NWR BROADCAST TEXT
NATIONAL WEATHER SERVICE BISMARCK ND
400 PM CDT SUN MAR 26 2017

NOTE: "FAIR" INDICATES FEW OR NO CLOUDS BELOW 12,000 FEET WITH NO
SIGNIFICANT WEATHER AND/OR OBSTRUCTIONS TO VISIBILITY.


CITY           SKY/WX    TMP DP  RH WIND       PRES   REMARKS
WILLISTON      FAIR      64  27  24 W10       29.85F
MINOT          FAIR      59  41  51 E9        29.87F
MINOT AFB      FAIR      53  41  62 E7        29.86F
BISMARCK       FAIR      62  36  37 E9        29.90F
DICKINSON      PTSUNNY   58  26  29 VRB6      29.86F
GARRISON         N/A     59  33  37 VRB6      29.88F
HETTINGER ARPT CLOUDY    56  32  40 CALM      29.90F
JAMESTOWN      CLOUDY    49  39  68 NE5       29.91F
HAZEN          FAIR      61  30  31 CALM      29.89F
LINTON         MOCLDY    52  41  66 CALM      29.93F
MANDAN         FAIR      59  34  38 E8        29.90S
STANLEY        FAIR      61  27  27 VRB5      29.88S
TIOGA          MOCLDY    57  30  35 VRB5      29.87S
WATFORD CITY   FAIR      61  28  29 W10       29.85S
$$

CITY           SKY/WX    TMP DP  RH WIND       PRES   REMARKS
GRAND FORKS    PTSUNNY   45  40  82 S6        29.94S
GRAND FORKS AF CLOUDY    49  41  75 SE5       29.94S
DEVILS LAKE    FAIR      51  41  68 NE5       29.92S
FARGO          CLOUDY    44  37  76 W5        29.95F
CAVALIER       CLOUDY    43  37  81 E6        29.94F
GRAFTON        MOCLDY    45  41  87 E6        29.96S
GWINNER        MOCLDY    50  37  62 MISG      29.93F
LANGDON        FAIR      48  39  71 NE7       29.93S
ROLLA          FAIR      43  41  93 E5        29.92F
$$

CITY           SKY/WX    TMP DP  RH WIND       PRES   REMARKS
ABERDEEN       PTSUNNY   45  36  70 W6        29.94F
MOBRIDGE       FAIR      53  34  48 VRB3      29.90F
BUFFALO          N/A     55  37  50 CALM      29.85F
RAPID CITY     LGT RAIN  41  38  89 N14       29.94S
GLASGOW        FAIR      56  21  25 W15       29.90S
SIDNEY         FAIR      63  26  24 NW8       29.86F
WOLF POINT     FAIR      59  23  25 W13       29.88F
GLENDIVE       FAIR      61  27  27 SW5       29.87F
MILES CITY     FAIR      58  31  35 MISG      29.89F
BAKER          FAIR      58  30  34 VRB3      29.89F
$$

CITY           SKY/WX    TMP DP  RH WIND       PRES   REMARKS
BILLINGS       FAIR      56  26  31 SE8       29.87F
GREAT FALLS    FAIR      54  15  21 W14       29.84F
ESTEVAN        PTSUNNY   48  41  76 NE12      29.84F
$$





USA.gov is the U.S. government's official web portal to all federal, state and local government web resources and services.